Location: Newark
(7.0858°N, 171.3717°E)
Time: 23:21:31
(UTC+00:00)

S-56A Canister/Altair - Visible Passes

Search period start: 25 November 2020 00:00
Search period end: 05 December 2020 00:00
Orbit: 633 x 2499 km, 38.9° (Epoch: 25 November)

Date Brightness Start Highest point End Pass type
(mag) Time Alt. Az. Time Alt. Az. Time Alt. Az.
25 Nov 10.1 07:29:54 10° WSW 07:42:23 44° NW 07:49:25 18° NNE visible
25 Nov 9.1 16:10:50 26° ENE 16:10:50 26° ENE 16:13:58 10° ESE visible
26 Nov 10.1 06:55:40 10° WSW 07:09:09 52° NW 07:18:41 10° NNE visible
26 Nov 10.8 09:10:56 10° WNW 09:15:01 13° NW 09:16:08 12° NNW visible
26 Nov 10.2 15:40:12 12° E 15:40:12 12° E 15:40:43 10° E visible
26 Nov 8.5 17:37:39 17° W 17:40:37 32° SW 17:45:50 10° SSE visible
27 Nov 10.1 06:21:33 10° WSW 06:35:49 61° NW 06:46:15 10° NE visible
27 Nov 10.7 08:35:12 10° WNW 08:41:48 17° NW 08:45:24 14° NNW visible
27 Nov 7.9 17:07:01 35° WSW 17:07:59 39° SW 17:13:06 10° SSE visible
28 Nov 10.7 07:59:57 10° W 08:08:32 21° NW 08:14:37 12° N visible
28 Nov 8.0 16:36:21 44° S 16:36:21 44° S 16:40:25 10° SE visible
29 Nov 10.7 07:24:59 10° W 07:35:14 25° NW 07:43:17 10° NNE visible
29 Nov 9.3 16:05:40 24° SE 16:05:40 24° SE 16:07:43 10° SE visible
30 Nov 10.7 06:50:14 10° W 07:01:52 30° NW 07:10:59 10° NNE visible
30 Nov 10.3 15:34:57 10° SE 15:34:57 10° SE 15:35:02 10° SE visible
01 Dec 10.8 06:15:40 10° W 06:28:26 36° NW 06:38:32 10° NNE visible
02 Dec 11.0 07:58:36 10° NW 08:02:34 12° NNW 08:06:10 10° N visible
02 Dec 9.8 16:30:54 10° SSW 16:30:54 10° SSW 16:31:04 10° SSW visible
03 Dec 11.0 07:22:29 10° WNW 07:29:02 15° NNW 07:34:43 10° N visible
04 Dec 11.0 06:46:58 10° WNW 06:55:26 18° NNW 07:02:41 10° N visible
